Jackson, MS

2:37 PM CDT on July 26, 2017 (GMT -0500)
Jackson-Evers International

Weather History for KJAN - November, 2012

Change the Weather History Date:

Tuesday, November 13, 2012

  Actual Average Record
Temperature  
Mean Temperature 45 °F 56 °F  
Max Temperature 57 °F 68 °F 86 °F (1955)
Min Temperature 33 °F 45 °F 23 °F (1907)
Degree Days  
Heating Degree Days 20 9  
Month to date heating degree days 117 100  
Since 1 July heating degree days 228 207  
Cooling Degree Days 0 1  
Month to date cooling degree days 11 14  
Year to date cooling degree days 2521 2245  
Moisture  
Dew Point 30 °F    
Average Humidity 60    
Maximum Humidity 89    
Minimum Humidity 30    
Precipitation  
Precipitation 0.00 in 0.16 in 3.97 in (1957)
Month to date precipitation 2.07 1.84  
Year to date precipitation 59.95 46.07  
Sea Level Pressure  
Sea Level Pressure 30.40 in    
Wind  
Wind Speed 7 mph (North)    
Max Wind Speed 16 mph    
Max Gust Speed 23 mph    
Visibility 10 miles    
Events      
T = Trace of Precipitation, MM = Missing Value Source: NWS Daily Summary

Daily Weather History Graph

Daily Weather History Graph

Search for Another Location

Airport or City:

Trip Planner

Search our weather history database for the weather conditions in past years. The results will help you decide how hot, cold, wet, or windy it might be!

Date:

Astronomy

Nov. 13, 2012 Rise Set
Actual Time 6:28 AM CST 5:00 PM CST
Civil Twilight 6:02 AM CST 5:26 PM CST
Nautical Twilight 5:32 AM CST 5:56 PM CST
Astronomical Twilight 5:03 AM CST 6:25 PM CST
Moon 6:05 AM CST (11/13) 4:55 PM CST (11/13)
Length of Visible Light 11h 24m
Length of Day
10h 32m
Waning Crescent, 0% of the Moon is Illuminated
Nov 13
Waning Crescent
Nov 13
New
Nov 20
First Quarter
Nov 28
Full
Dec 6
Last Quarter

Hourly Weather History & Observations

Time (CST) Temp. Windchill Dew Point Humidity Pressure Visibility Wind Dir Wind Speed Gust Speed Precip Events Conditions
12:54 AM 37.9 °F 33.5 °F 33.1 °F 83% 30.43 in 10.0 mi North 5.8 mph - N/A   Clear
1:54 AM 39.0 °F 34.8 °F 33.1 °F 79% 30.44 in 10.0 mi NNW 5.8 mph - N/A   Clear
2:54 AM 36.0 °F 31.1 °F 30.9 °F 82% 30.45 in 10.0 mi NNW 5.8 mph - N/A   Clear
3:54 AM 36.0 °F 33.3 °F 30.9 °F 82% 30.45 in 10.0 mi NNW 3.5 mph - N/A   Clear
4:54 AM 34.0 °F - 30.9 °F 89% 30.46 in 10.0 mi Calm Calm - N/A   Clear
5:54 AM 35.1 °F 31.0 °F 30.9 °F 85% 30.47 in 10.0 mi North 4.6 mph - N/A   Clear
6:54 AM 37.0 °F 33.3 °F 28.9 °F 73% 30.48 in 10.0 mi NNE 4.6 mph - N/A   Clear
7:54 AM 42.1 °F 36.1 °F 28.0 °F 58% 30.48 in 10.0 mi NNE 10.4 mph - N/A   Clear
8:54 AM 46.0 °F 40.6 °F 27.0 °F 47% 30.48 in 10.0 mi NNE 11.5 mph - N/A   Clear
9:54 AM 50.0 °F - 28.0 °F 43% 30.48 in 10.0 mi NNE 10.4 mph - N/A   Clear
10:54 AM 51.1 °F - 30.0 °F 44% 30.46 in 10.0 mi North 11.5 mph - N/A   Clear
11:54 AM 53.1 °F - 30.0 °F 41% 30.42 in 10.0 mi North 13.8 mph - N/A   Clear
12:54 PM 55.0 °F - 28.0 °F 35% 30.38 in 10.0 mi North 15.0 mph - N/A   Clear
1:54 PM 55.9 °F - 28.0 °F 34% 30.35 in 10.0 mi NNE 13.8 mph 20.7 mph N/A   Clear
2:54 PM 57.0 °F - 27.0 °F 32% 30.34 in 10.0 mi North 8.1 mph - N/A   Clear
3:54 PM 55.0 °F - 27.0 °F 34% 30.33 in 10.0 mi NNE 10.4 mph - N/A   Clear
4:54 PM 50.0 °F - 28.9 °F 44% 30.33 in 10.0 mi North 5.8 mph - N/A   Clear
5:54 PM 48.0 °F - 30.0 °F 50% 30.34 in 10.0 mi NNW 5.8 mph - N/A   Clear
6:54 PM 46.0 °F 44.8 °F 32.0 °F 58% 30.35 in 10.0 mi North 3.5 mph - N/A   Clear
7:54 PM 46.9 °F - 30.0 °F 52% 30.37 in 10.0 mi NE 4.6 mph - N/A   Clear
8:54 PM 46.0 °F 43.9 °F 28.9 °F 51% 30.37 in 10.0 mi NNE 4.6 mph - N/A   Clear
9:54 PM 44.1 °F 41.5 °F 30.9 °F 60% 30.35 in 10.0 mi NNE 4.6 mph - N/A   Clear
10:54 PM 46.0 °F 42.5 °F 28.9 °F 51% 30.35 in 10.0 mi NNE 6.9 mph - N/A   Clear
11:54 PM 45.0 °F 41.2 °F 28.9 °F 53% 30.33 in 10.0 mi NE 6.9 mph - N/A   Clear